GW5269 Weather Reports


time (UTC)temp
F
wind
direction
speed
knots
gust
knots
rain 1hr
in
rain 24hr
in
rain mn
in
humidity
%
barometer
mb
20260504081650 45 211 0.9 3.5 0.00 0.00 0.00 63 1015.3
20260504081146 45 209 1.7 5.2 0.00 0.00 0.00 60 1015.3
20260504080643 45 170 2.6 2.6 0.00 0.00 0.00 58 1015.4
20260504080139 45 178 2.6 5.2 0.00 0.00 0.00 56 1015.3
20260504070108 45 174 1.7 1.7 0.00 0.00 0.00 57 1015.6
20260504050456 45 233 0.9 3.5 0.00 0.00 0.00 56 1015.8
20260504045953 45 196 0.9 2.6 0.00 0.00 0.00 55 1015.9
20260504045449 45 227 0.9 0.9 0.00 0.00 0.00 55 1015.8
20260504044945 45 234 0.0 1.7 0.00 0.00 0.00 57 1016.1
20260504044443 45 189 0.9 1.7 0.00 0.00 0.00 55 1016.2
20260504043940 45 165 0.0 2.6 0.00 0.00 0.00 53 1015.9
20260504043437 44 189 1.7 5.2 0.00 0.00 0.00 54 1016.1
20260504042934 44 224 0.9 1.7 0.00 0.00 0.00 57 1016.1
20260504042431 44 201 0.9 0.9 0.00 0.00 0.00 56 1015.8
20260504041927 44 224 0.9 1.7 0.00 0.00 0.00 57 1015.8
20260504041424 44 217 0.0 5.2 0.00 0.00 0.00 57 1016.2
20260504040920 44 190 0.9 1.7 0.00 0.00 0.00 59 1015.9
20260504040418 43 165 0.0 0.9 0.00 0.00 0.00 59 1015.9
20260504035913 43 232 0.0 0.0 0.00 0.00 0.00 59 1016.1
20260504035411 43 212 0.9 0.9 0.00 0.00 0.00 57 1015.9
20260504034907 43 215 0.0 0.0 0.00 0.00 0.00 55 1016.1
20260504034405 43 206 0.0 0.9 0.00 0.00 0.00 55 1016.2
20260504033902 43 199 0.0 0.9 0.00 0.00 0.00 56 1016.4
20260504033400 42 177 0.0 0.9 0.00 0.00 0.00 58 1016.3
20260504032856 42 208 0.0 0.0 0.00 0.00 0.00 59 1016.3
20260504032353 43 219 0.0 0.9 0.00 0.00 0.00 58 1016.2
20260504031850 43 206 0.0 0.9 0.00 0.00 0.00 58 1016.4
20260504031347 43 175 0.9 2.6 0.00 0.00 0.00 55 1016.3
20260504030843 43 219 0.9 1.7 0.00 0.00 0.00 56 1016.2
20260504030341 43 224 0.9 0.9 0.00 0.00 0.00 56 1016.4
20260504025837 43 236 0.9 1.7 0.00 0.00 0.00 56 1016.2
20260504025334 43 98 0.9 1.7 0.00 0.00 0.00 55 1016.2
20260504024830 43 235 0.0 3.5 0.00 0.00 0.00 57 1016.2
20260504024327 43 211 0.9 0.9 0.00 0.00 0.00 56 1016.2
20260504023824 43 189 0.0 0.0 0.00 0.00 0.00 60 1016.2
20260504023321 42 209 0.9 2.6 0.00 0.00 0.00 56 1016.1
20260504022816 43 222 0.9 0.9 0.00 0.00 0.00 58 1016.3
20260504022313 43 233 0.0 1.7 0.00 0.00 0.00 60 1016.2
20260504021809 42 211 0.9 0.9 0.00 0.00 0.00 59 1016.2
20260504021308 43 218 0.0 0.0 0.00 0.00 0.00 59 1016.2
20260504020804 43 203 0.9 0.9 0.00 0.00 0.00 57 1016.2
20260504020301 43 202 0.9 0.9 0.00 0.00 0.00 56 1016.2
20260504015757 43 186 0.0 0.9 0.00 0.00 0.00 58 1016.5
20260504015253 44 141 0.9 1.7 0.00 0.00 0.00 59 1016.2
20260504014749 44 169 0.9 0.9 0.00 0.00 0.00 56 1016.2
20260504014246 44 176 0.9 0.9 0.00 0.00 0.00 58 1016.2
20260504013744 44 165 0.9 0.9 0.00 0.00 0.00 57 1016.1
20260504013241 44 196 0.0 1.7 0.00 0.00 0.00 58 1016.3
20260504012737 44 179 0.9 0.9 0.00 0.00 0.00 57 1016.1
20260504012235 44 140 0.9 2.6 0.00 0.00 0.00 55 1015.9
20260504011732 43 138 0.0 0.9 0.00 0.00 0.00 56 1015.9
20260504011229 43 193 0.0 1.7 0.00 0.00 0.00 58 1016.1
20260504010725 42 310 0.0 2.6 0.00 0.00 0.00 57 1015.8
20260504010220 43 329 0.0 0.0 0.00 0.00 0.00 63 1015.9
20260504005717 43 137 0.0 0.0 0.00 0.00 0.00 59 1015.8
20260504005215 43 145 0.0 0.0 0.00 0.00 0.00 59 1015.8
20260504004712 44 145 0.0 0.9 0.00 0.00 0.00 57 1015.7
20260504004209 44 247 0.0 0.9 0.00 0.00 0.00 59 1015.9
20260504003706 44 210 0.0 0.0 0.00 0.00 0.00 55 1015.7
20260504003202 44 281 0.0 0.0 0.00 0.00 0.00 55 1015.9
20260504002659 44 223 0.0 0.9 0.00 0.00 0.00 56 1015.8
20260504002156 45 261 0.0 2.6 0.00 0.00 0.00 58 1015.8
20260504001654 44 181 0.9 0.9 0.00 0.00 0.00 57 1015.9
20260504001150 45 174 1.7 1.7 0.00 0.00 0.00 56 1015.9
20260504000647 44 160 0.9 1.7 0.00 0.00 0.00 57 1016.1
20260504000145 44 184 0.9 0.9 0.00 0.00 0.00 53 1015.8
20260503235643 44 190 0.0 0.0 0.00 0.00 0.00 56 1015.8
20260503235139 45 170 0.0 0.9 0.00 0.00 0.00 57 1015.8
20260503234637 45 186 1.7 1.7 0.00 0.00 0.00 53 1015.9
20260503234135 45 210 0.9 1.7 0.00 0.00 0.00 55 1015.9
20260503233632 46 173 0.9 0.9 0.00 0.00 0.00 56 1015.9
20260503233127 46 234 0.9 0.9 0.00 0.00 0.00 51 1015.9
20260503232625 47 215 0.9 1.7 0.00 0.00 0.00 53 1016.1
20260503232122 47 219 0.9 3.5 0.00 0.00 0.00 51 1015.9
20260503231620 47 13 0.0 0.9 0.00 0.00 0.00 50 1015.9
20260503231116 47 233 1.7 2.6 0.00 0.00 0.00 51 1015.9
20260503230613 47 206 0.9 2.6 0.00 0.00 0.00 48 1015.8
20260503230110 48 202 0.9 2.6 0.00 0.00 0.00 49 1015.9
20260503225608 48 94 1.7 2.6 0.00 0.00 0.00 48 1016.1
20260503225107 48 152 1.7 1.7 0.00 0.00 0.00 46 1016.1
20260503224605 48 255 2.6 7.8 0.00 0.00 0.00 43 1016.2
20260503224103 49 184 1.7 2.6 0.00 0.00 0.00 47 1015.7
20260503223601 49 166 1.7 2.6 0.00 0.00 0.00 48 1015.9
20260503223102 49 69 0.9 1.7 0.00 0.00 0.00 45 1015.9
20260503222600 49 188 1.7 5.2 0.00 0.00 0.00 42 1015.9
20260503222057 49 224 0.9 3.5 0.00 0.00 0.00 47 1016.1
20260503221555 49 214 0.0 2.6 0.00 0.00 0.00 43 1016.1
20260503221053 50 261 0.9 3.5 0.00 0.00 0.00 44 1015.9
20260503220548 50 108 0.9 1.7 0.00 0.00 0.00 45 1015.8
20260503220046 50 73 0.0 0.9 0.00 0.00 0.00 45 1015.8
20260503215543 50 217 0.9 1.7 0.00 0.00 0.00 43 1016.1
20260503215040 51 251 1.7 5.2 0.00 0.00 0.00 42 1015.9
20260503214538 51 123 1.7 3.5 0.00 0.00 0.00 45 1016.1
20260503214034 51 153 4.3 7.0 0.00 0.00 0.00 42 1015.9
20260503213533 51 207 3.5 5.2 0.00 0.00 0.00 41 1015.8
20260503213029 51 148 3.5 6.1 0.00 0.00 0.00 47 1016.1
20260503212526 51 147 2.6 6.1 0.00 0.00 0.00 45 1015.9
20260503212024 51 136 5.2 7.0 0.00 0.00 0.00 39 1016.1
20260503211521 51 144 5.2 7.0 0.00 0.00 0.00 48 1016.1
20260503211016 52 234 2.6 3.5 0.00 0.00 0.00 41 1016.4
20260503210513 53 347 0.0 1.7 0.00 0.00 0.00 39 1016.1
20260503210009 51 131 1.7 6.1 0.00 0.00 0.00 41 1016.3
20260503205506 53 124 1.7 6.1 0.00 0.00 0.00 43 1015.9
20260503205001 53 313 0.9 7.8 0.00 0.00 0.00 40 1016.4
20260503204459 53 204 1.7 7.0 0.00 0.00 0.00 40 1016.3
20260503203955 54 81 3.5 5.2 0.00 0.00 0.00 37 1016.1
20260503203454 54 73 2.6 3.5 0.00 0.00 0.00 38 1016.3
20260503202950 53 83 3.5 5.2 0.00 0.00 0.00 39 1016.3
20260503202448 54 229 1.7 2.6 0.00 0.00 0.00 37 1016.2
20260503201946 52 308 0.9 2.6 0.00 0.00 0.00 44 1016.3
20260503201444 53 177 1.7 6.1 0.00 0.00 0.00 39 1016.4
20260503200941 53 197 2.6 7.8 0.00 0.00 0.00 50 1016.7
20260503200437 52 151 1.7 3.5 0.00 0.00 0.00 49 1016.8
20260503195934 51 166 2.6 7.8 0.00 0.00 0.00 46 1016.6
20260503195432 52 206 1.7 3.5 0.00 0.00 0.00 47 1016.8
20260503194928 50 191 1.7 6.1 0.00 0.00 0.00 45 1017.0
20260503194425 52 203 0.9 3.5 0.00 0.00 0.00 48 1016.9
20260503193920 53 259 1.7 7.0 0.00 0.00 0.00 42 1017.1
20260503193416 54 264 1.7 3.5 0.00 0.00 0.00 46 1017.0
20260503192911 52 203 0.9 3.5 0.00 0.00 0.00 49 1017.0
20260503192408 53 232 0.9 2.6 0.00 0.00 0.00 44 1017.0
20260503191904 52 206 1.7 7.0 0.00 0.00 0.00 51 1017.1
20260503191401 50 155 3.5 7.8 0.00 0.00 0.00 52 1017.1
20260503190857 52 165 2.6 3.5 0.00 0.00 0.00 42 1017.0
20260503190355 49 216 1.7 6.1 0.00 0.00 0.00 42 1017.0
20260503185852 49 116 4.3 6.1 0.00 0.00 0.00 45 1017.4
20260503185348 51 110 1.7 2.6 0.00 0.00 0.00 42 1017.2
20260503184848 53 106 0.0 1.7 0.00 0.00 0.00 42 1017.2
20260503184344 51 133 1.7 3.5 0.00 0.00 0.00 49 1017.2
20260503183840 50 129 0.9 7.8 0.00 0.00 0.00 43 1017.4
20260503183337 50 273 6.1 7.8 0.00 0.00 0.00 46 1017.5
20260503182835 52 110 2.6 3.5 0.00 0.00 0.00 43 1017.5
20260503182334 51 205 1.7 2.6 0.00 0.00 0.00 46 1017.6
20260503181830 51 237 1.7 3.5 0.00 0.00 0.00 42 1017.6
20260503181327 51 91 0.0 7.0 0.00 0.00 0.00 44 1017.7
20260503180824 49 192 1.7 5.2 0.00 0.00 0.00 48 1017.6
20260503180322 51 174 1.7 2.6 0.00 0.00 0.00 47 1017.6
20260503175818 50 359 2.6 3.5 0.00 0.00 0.00 48 1017.7
20260503175316 49 162 4.3 6.1 0.00 0.00 0.00 46 1017.7
20260503174811 48 197 0.0 5.2 0.00 0.00 0.00 48 1017.7
20260503174310 47 274 0.9 1.7 0.00 0.00 0.00 50 1017.9
20260503173805 47 123 1.7 5.2 0.00 0.00 0.00 49 1017.9
20260503173301 48 68 0.9 5.2 0.00 0.00 0.00 50 1017.8
20260503172758 47 122 0.0 1.7 0.00 0.00 0.00 53 1017.8
20260503172256 49 249 1.7 6.1 0.00 0.00 0.00 51 1017.8
20260503171752 49 144 1.7 6.1 0.00 0.00 0.00 58 1017.9
20260503171249 48 259 0.9 3.5 0.00 0.00 0.00 54 1018.1
20260503170746 46 220 2.6 3.5 0.00 0.00 0.00 53 1018.2
20260503170242 46 254 0.9 3.5 0.00 0.00 0.00 51 1018.1
20260503160205 48 213 3.5 5.2 0.00 0.00 0.00 52 1018.4
20260503150635 43 55 0.0 3.5 0.00 0.00 0.00 58 1018.6
20260503150131 45 236 0.9 3.5 0.00 0.00 0.00 58 1018.6
20260503131014 38 81 1.7 3.5 0.00 0.00 0.00 80 1018.0
20260503130511 37 76 0.0 0.9 0.00 0.00 0.00 83 1018.1
20260503110401 29 262 0.0 0.0 0.00 0.00 0.00 98 1017.0